Starlink 5789

operational
NORAD ID: 56003 Int'l Des: 2023-042 Owner: SPXS Country: US Constellation: starlink
LEOCIRCULAR

Über Starlink 5789

Beschreibung wird geladen...

Live-Position

3D-Globus wird geladen...

Nächste Überflüge

Höhenverlauf

Altitude vs Time

uPlot chart will show altitude changes over time

Zweizeiliger Elementsatz

1 56003U 23042T 25303.00908670 .00000677 00000-0 65194-4 0 9997
2 56003 43.0035 46.1057 0001202 267.3488 92.7217 15.02538403143251
Epoch: 30. Okt. 2025 • Age: 20 hours

Aktueller Status

Höhe 559.5 km
Geschwindigkeit 7.59 km/s
Subsatellitenpunkt 25.15°N, 147.67°W
Startdatum 24. März 2023
Alter 2.6 years
Typ internet

Technische Details

Klassifizierung Payload
Masse 305.00 kg
Trockenmasse 290.00 kg
Gesamtmasse 305.00 kg
Länge 0.20 m
Durchmesser 2.80 m
Spannweite 9.00 m
Form Box + pan
Hersteller SPXS
Bus-Typ Starlink
Phasenstatus In Orbit
Besitzer/Staat SPXS/US

Große Konstellationen

Loading constellations...